Hourly Data Report for October 15, 2013

All times are specified in Local Standard Time (LST). Add 1 hour to adjust for Daylight Saving Time where and when it is observed.

MONCTON INTL A
NEW BRUNSWICK

46°06'44.000" N
64°40'43.000" W
70.70 m
8103201
71705
YQM

Download Data

Hourly Data (October 2013)
Hourly Data Report for October 15, 2013
Temp Definition
°C
Dew Point Temp Definition
°C
Rel Hum Definition
%
Wind Dir Definition
10's deg

Wind Spd Definition
km/h
Visibility Definition
km
Stn Press Definition
kPa
Hmdx Definition


Wind Chill Definition


Weather Definition


TIME
00:00 Legend Double Dagger 10.1 9.3 95 23 18 19.3 101.34     Rain Showers
01:00 Legend Double Dagger 9.7 8.9 95 23 17 24.1 101.32     LegendNANA
02:00 Legend Double Dagger 9.9 9.1 95 24 17 24.1 101.33     Mostly Cloudy
03:00 Legend Double Dagger 9.1 8.7 97 22 13 24.1 101.29     LegendNANA
04:00 Legend Double Dagger 9.5 9.1 97 23 16 24.1 101.33     LegendNANA
05:00 Legend Double Dagger 9.9 9.3 96 24 14 24.1 101.37     Mostly Cloudy
06:00 Legend Double Dagger 9.3 8.9 97 23 14 24.1 101.40     LegendNANA
07:00 Legend Double Dagger 9.5 9.1 97 24 14 24.1 101.45     LegendNANA
08:00 Legend Double Dagger 11.1 10.0 93 26 10 24.1 101.48     Mostly Cloudy
09:00 Legend Double Dagger 12.7 10.1 84 32 15 24.1 101.51     LegendNANA
10:00 Legend Double Dagger 13.7 9.6 76 34 17 24.1 101.51     LegendNANA
11:00 Legend Double Dagger 14.1 8.8 70 34 14 24.1 101.53     Mostly Cloudy
12:00 Legend Double Dagger 14.0 7.8 66 1 14 24.1 101.51     LegendNANA
13:00 Legend Double Dagger 14.3 5.5 55 4 13 24.1 101.50     LegendNANA
14:00 Legend Double Dagger 13.8 4.5 53 4 17 24.1 101.52     Mostly Cloudy
15:00 Legend Double Dagger 13.2 4.4 55 3 16 24.1 101.51     LegendNANA
16:00 Legend Double Dagger 11.9 2.9 54 3 19 24.1 101.53     LegendNANA
17:00 Legend Double Dagger 10.1 3.0 61 6 11 24.1 101.52     Mostly Cloudy
18:00 Legend Double Dagger 7.1 2.8 74 6 7 24.1 101.57     LegendNANA
19:00 Legend Double Dagger 7.2 2.3 71 9 12 24.1 101.60     LegendNANA
20:00 Legend Double Dagger 6.3 2.6 77 13 10 24.1 101.65     Mostly Cloudy
21:00 Legend Double Dagger 5.9 2.0 76 11 10 24.1 101.71     LegendNANA
22:00 Legend Double Dagger 4.4 1.6 82 11 11 24.1 101.71     LegendNANA
23:00 Legend Double Dagger 5.4 1.9 78 12 13 24.1 101.67     Mostly Cloudy

Notes on Data Quality.

Legend

  • E = Estimated
  • M = Missing
  • NA = Not Available
  • ‡ = Partner data that is not subject to review by the National Climate Archives
Date modified: